Wind_Speed
72 84 96 102 108 109 113 120 129 132 134 136 130 129 124 121 120 121 117 116 115 110 107 105 104 99 97 99 98 96 98 95 94 91 88 86 82 80 80 79 79 82 85 80 79 79 76 76 80 79 81 77 74 73
67 80 92 98 102 107 112 118 122 124 123 129 129 127 127 124 120 121 118 116 114 109 107 106 104 106 102 98 100 102 103 100 100 97 94 92 89 87 87 86 89 86 85 86 84 83 83 83 82 83 82 79 77 75
62 73 84 91 98 103 106 110 114 116 123 122 130 128 126 124 122 120 118 116 115 112 109 108 106 105 104 102 101 101 100 100 100 100 100 100 101 98 97 95 96 92 92 91 90 86 87 88 87 86 83 83 83 80
57 65 75 82 87 91 97 100 106 112 117 122 125 129 126 124 121 120 118 117 114 115 115 110 107 106 105 106 106 104 102 101 102 103 103 101 100 102 103 103 100 96 97 96 95 90 93 91 90 90 90 89 89 88
53 59 67 75 79 81 85 90 95 102 108 114 118 118 124 124 121 119 118 118 118 119 114 111 110 110 109 107 108 107 106 106 105 105 106 103 102 103 101 102 96 92 92 94 92 94 96 91 91 90 90 91 91 91
52 58 64 70 74 75 79 83 90 97 99 103 111 120 122 121 121 119 118 119 117 115 112 112 109 109 109 108 108 109 109 108 108 108 107 107 107 107 107 102 90 91 90 93 96 99 97 95 93 93 91 89 88 89
47 53 58 64 70 76 83 88 91 95 96 102 117 113 115 116 118 117 114 114 115 115 113 112 113 114 114 114 112 112 111 111 111 111 111 109 109 111 111 100 92 94 95 97 97 99 98 99 97 94 90 89 90 88
44 49 55 60 66 73 80 83 87 91 96 102 103 102 105 112 113 118 117 117 117 117 117 117 116 117 116 115 116 115 115 114 113 112 111 111 113 114 112 96 99 100 101 99 100 102 103 102 100 97 94 93 90 89
45 49 53 56 62 71 78 82 85 89 94 97 101 99 107 111 117 116 114 115 117 118 118 117 117 117 117 115 115 115 114 113 113 112 112 113 115 114 105 103 104 104 102 102 101 101 104 104 104 104 101 95 92 91
44 47 51 57 64 69 76 82 92 96 99 98 99 102 104 104 106 109 107 110 114 114 115 116 117 116 117 116 115 115 115 116 114 114 116 117 114 109 110 107 104 102 102 102 99 97 101 101 104 104 101 95 91 88
45 46 50 56 63 71 78 85 89 90 95 96 96 96 95 100 101 103 107 107 109 111 112 113 113 112 113 113 114 115 116 116 117 117 117 115 111 111 114 110 107 105 102 101 99 95 95 99 99 96 91 89 86 85
46 48 50 56 60 69 74 77 80 82 82 83 84 88 92 94 98 102 104 104 102 102 105 105 107 107 107 109 112 115 117 118 116 115 114 110 110 114 113 106 104 103 102 100 98 95 94 96 98 95 89 86 86 84
45 47 50 53 56 61 66 70 74 74 76 79 82 87 88 90 92 92 90 87 89 87 88 90 93 98 103 106 108 111 111 111 111 111 110 111 112 114 103 104 102 101 99 98 96 94 92 90 90 91 85 84 81 80
45 48 52 53 53 56 60 60 63 67 68 70 74 77 81 84 85 84 86 85 81 81 85 93 98 102 103 104 104 104 103 101 105 104 104 108 110 89 95 98 98 96 93 89 88 87 86 86 88 87 84 82 80 75
42 44 46 49 52 53 54 57 59 59 60 66 68 70 68 67 68 71 67 69 70 73 78 82 88 90 91 92 92 93 94 95 89 89 92 96 78 83 84 85 82 78 76 75 76 76 75 73 73 71 69 69 68 67
39 41 42 45 47 51 54 55 57 58 60 62 61 58 59 60 62 63 65 66 70 73 76 77 77 77 78 81 81 85 85 82 81 81 78 80 76 77 76 76 74 69 68 66 66 64 63 62 63 64 61 60 60 61
35 38 40 45 49 52 53 55 57 60 58 55 56 58 60 61 60 60 64 66 70 69 67 69 70 73 73 72 68 67 66 70 72 73 77 79 74 72 70 69 66 63 63 61 58 56 56 57 57 56 56 56 55 56
41 43 46 47 46 46 48 49 49 47 44 45 47 46 51 53 56 59 60 61 63 65 66 66 66 63 61 59 55 58 67 70 59 67 70 65 62 61 63 64 62 60 57 55 53 52 54 55 54 53 54 55 55 55
35 34 37 38 40 42 41 42 39 41 48 54 56 56 56 59 59 58 54 51 47 50 50 49 49 43 42 51 54 57 55 50 54 55 54 53 52 52 56 57 57 56 55 54 53 53 53 53 52 52 51 52 55 54
43 43 41 43 44 43 41 38 40 45 50 52 52 50 49 49 49 48 46 42 42 43 37 39 38 42 50 47 44 43 41 37 39 49 48 44 42 44 48 50 53 52 52 51 51 51 50 49 49 48 50 51 51 50
44 44 44 43 43 42 44 47 50 52 45 42 40 38 41 46 46 47 48 48 42 38 42 47 50 49 44 42 42 41 41 38 38 38 36 36 37 37 42 46 49 51 49 49 48 47 46 45 44 44 45 45 43 41
42 43 42 42 43 46 48 49 45 41 38 35 37 42 45 44 44 42 40 39 43 44 41 40 41 40 38 35 36 33 33 33 34 36 37 36 37 38 39 42 45 44 43 43 43 41 39 38 37 39 38 35 33 31
44 43 43 44 43 44 43 39 37 35 31 30 29 29 28 28 30 32 35 34 30 30 29 30 28 28 32 29 28 35 34 33 32 35 34 33 32 32 34 34 33 34 34 31 30 32 32 31 32 32 31 28 26 25
46 46 46 47 44 42 40 38 35 33 29 27 26 26 26 25 25 30 31 29 27 24 24 23 24 27 26 27 31 30 30 30 32 31 29 28 28 26 26 27 27 26 23 25 27 27 29 27 25 25 26 25 22 18
41 42 41 41 41 41 41 39 34 30 30 29 27 25 25 25 29 31 28 26 24 23 23 24 25 26 28 29 28 28 29 29 26 27 27 27 25 24 24 21 20 21 24 23 23 25 25 26 26 25 22 17 16 15
35 33 34 37 43 46 44 41 37 34 31 27 27 28 26 27 29 24 22 21 22 24 23 23 23 23 23 22 22 22 22 25 25 24 22 19 19 20 21 23 24 25 26 28 28 26 25 24 22 18 17 17 18 23
35 39 43 49 47 47 42 35 26 24 27 29 28 25 25 27 24 19 19 20 23 21 18 17 17 20 22 23 23 22 22 21 20 20 24 26 25 26 26 27 27 28 25 24 24 23 22 20 20 21 23 28 31 28
37 41 43 47 48 45 40 34 31 27 29 30 30 29 28 26 19 19 25 27 23 20 18 17 19 23 23 23 23 23 23 24 26 27 25 25 25 25 24 24 25 24 24 23 23 22 24 25 27 31 35 32 29 24
42 46 48 48 46 42 34 31 31 32 32 31 31 30 26 21 21 25 27 26 23 21 19 19 21 22 23 23 22 23 23 24 23 22 22 24 24 25 26 25 24 24 24 25 27 29 30 32 37 34 31 26 23 20
42 44 43 42 39 32 27 21 29 28 29 31 28 23 21 25 28 28 25 21 19 18 20 20 21 23 24 22 22 22 20 19 20 22 25 27 27 26 24 25 26 27 28 30 31 32 37 37 34 31 27 24 20 15
36 37 36 35 34 29 24 29 30 28 29 27 23 22 25 28 27 25 23 20 19 19 21 22 23 23 23 24 23 21 20 23 26 27 28 27 26 26 27 28 28 29 31 33 36 40 37 34 31 28 25 20 16 11
33 32 31 32 31 29 31 33 31 31 29 25 24 24 24 21 22 21 21 21 21 22 22 23 23 24 24 23 23 24 26 26 27 27 26 27 28 29 30 30 31 34 35 40 39 37 34 32 29 25 20 16 14 11
31 30 29 28 32 35 37 34 31 26 24 23 24 25 24 23 22 21 21 21 21 21 23 23 24 25 25 25 26 27 27 28 27 27 28 29 30 31 32 34 34 38 42 40 37 33 32 29 23 20 17 15 13 12
Wind_Direction
207 206 209 210 210 212 210 211 212 213 211 212 214 218 221 222 223 224 226 229 232 233 233 235 236 236 237 239 240 242 244 247 249 250 251 251 252 252 252 253 255 258 261 262 264 268 270 269 276 276 279 280 280 280
207 207 208 210 210 211 211 212 214 214 214 213 215 218 220 221 223 226 227 229 232 234 235 236 237 238 239 239 242 244 246 247 248 250 251 251 252 253 254 255 258 259 262 265 267 270 271 273 273 275 276 276 277 279
207 207 209 210 210 211 213 212 213 214 215 213 213 216 219 222 223 224 226 228 230 232 234 235 235 237 238 240 241 244 246 247 249 250 252 253 255 256 256 258 260 261 262 265 268 269 270 271 271 271 273 274 276 278
205 207 209 211 212 212 212 211 212 212 214 214 214 216 217 220 222 224 227 229 231 233 234 236 237 237 239 241 243 243 245 248 250 252 254 254 255 256 258 261 263 265 267 268 269 270 269 271 272 273 274 274 275 278
202 203 205 209 212 212 209 208 209 211 214 214 216 216 219 221 223 225 228 230 231 233 234 236 238 239 240 242 244 246 247 248 250 252 254 256 258 260 261 262 264 266 268 269 270 271 273 273 274 274 274 275 276 277
201 200 201 202 205 207 208 206 207 209 210 212 216 218 219 221 223 226 229 231 233 235 236 237 239 242 243 244 246 247 248 250 251 253 255 257 259 260 261 263 264 265 267 268 271 273 274 276 277 277 278 278 277 279
198 199 199 199 199 199 201 203 204 207 208 211 217 218 220 222 224 226 228 230 233 235 237 238 239 239 241 243 245 247 249 251 252 254 255 257 259 260 261 263 263 265 266 269 270 273 275 274 275 277 277 277 280 282
195 197 197 195 196 197 198 200 202 205 208 213 218 217 218 223 227 226 226 229 231 234 236 237 239 240 241 243 245 247 250 252 254 255 257 258 260 261 263 264 265 265 267 268 270 272 273 274 276 275 275 278 281 283
193 193 194 193 195 196 197 199 200 203 206 209 214 216 219 220 224 227 227 230 233 235 237 239 240 241 242 244 246 249 250 252 255 257 258 259 261 263 266 264 265 265 265 267 270 271 272 273 274 275 277 280 282 282
191 194 191 191 192 195 197 199 202 203 208 210 214 216 219 221 226 230 230 232 233 236 238 240 241 242 244 246 247 250 252 254 256 258 258 259 261 263 263 264 264 265 266 268 268 270 271 271 272 274 277 280 280 279
192 190 189 190 193 196 199 203 208 208 210 213 215 220 221 225 227 230 232 232 233 236 238 240 242 244 247 249 251 253 255 256 256 257 258 260 261 262 263 264 265 265 265 266 267 267 269 269 271 271 274 276 279 279
190 189 189 191 194 197 202 206 210 213 214 216 218 220 226 226 229 232 234 235 236 238 240 243 246 248 251 252 253 254 254 256 257 257 258 260 260 260 262 264 264 265 265 264 265 264 264 265 267 270 273 274 275 277
192 189 190 193 196 198 202 206 210 214 216 217 217 219 222 227 230 233 238 240 241 244 246 248 250 250 249 250 251 253 254 255 256 257 258 259 260 261 264 265 264 264 263 264 264 264 265 266 268 271 272 273 274 276
192 190 189 192 196 197 201 203 207 212 216 220 223 225 228 231 235 238 239 241 242 243 243 242 243 244 246 247 249 251 253 255 256 257 258 259 260 263 261 260 259 259 260 260 261 262 263 264 266 267 269 271 271 271
192 192 191 191 195 199 199 200 203 207 210 215 218 221 226 229 232 236 239 240 239 239 241 240 241 243 245 247 250 252 253 254 256 257 256 257 257 253 253 254 254 253 254 255 256 258 259 260 261 262 263 264 267 268
189 190 191 191 194 196 199 202 205 204 209 213 217 220 225 229 233 235 237 239 239 238 240 242 243 242 241 243 245 247 249 250 249 250 251 253 251 250 250 251 252 251 250 250 252 253 254 255 256 257 259 261 262 265
182 185 188 190 195 198 200 203 204 206 211 213 215 217 222 226 230 233 236 239 241 243 243 244 245 244 241 241 243 248 249 247 246 247 246 248 250 251 254 253 252 251 250 249 249 251 252 253 254 255 256 259 259 259
180 180 184 188 192 199 201 204 209 213 212 217 223 225 228 232 235 236 238 239 242 245 245 246 247 249 248 248 250 249 248 248 249 247 249 252 253 253 254 254 253 251 250 248 245 244 245 247 250 253 255 256 256 258
190 186 183 184 189 192 197 200 203 206 211 214 217 221 226 230 232 235 241 247 249 251 252 256 257 264 264 253 250 253 257 256 252 256 257 256 255 252 252 253 253 252 249 246 245 244 245 246 249 253 256 256 256 258
192 190 186 186 187 187 186 184 188 197 207 212 219 223 227 233 237 243 250 257 260 260 265 270 267 259 256 258 262 265 267 267 260 255 256 256 255 251 251 252 252 251 249 248 249 248 249 250 251 252 252 254 257 260
195 194 193 190 188 187 189 195 202 208 212 217 223 229 233 239 243 245 242 240 236 230 229 231 238 247 253 254 252 253 254 251 248 251 254 256 251 246 247 248 250 250 248 248 249 251 253 255 258 260 260 262 264 267
196 195 195 197 198 200 201 207 210 212 215 220 224 225 227 224 223 225 225 221 223 227 233 238 241 245 247 250 252 253 254 251 247 243 236 233 232 234 240 243 245 249 252 255 258 259 257 256 258 260 263 263 264 267
196 197 200 202 204 209 214 215 215 216 216 219 221 215 210 212 218 225 228 226 225 227 234 240 240 242 240 235 234 233 230 230 234 237 236 235 231 231 238 244 251 253 253 254 254 253 253 252 251 252 255 259 257 255
194 195 200 204 208 212 216 216 216 210 211 216 222 222 220 221 226 229 229 224 221 225 230 231 232 231 228 226 228 229 228 226 230 233 232 230 231 232 234 237 240 242 242 242 244 245 245 245 244 243 243 244 248 245
194 196 195 197 202 210 217 217 214 210 209 213 216 215 219 220 228 232 232 229 221 220 221 219 219 222 221 218 218 225 227 227 227 229 229 229 229 229 231 235 237 234 233 228 224 225 225 227 230 235 237 233 223 215
188 186 188 194 203 210 213 213 211 207 203 208 213 213 212 220 228 232 232 230 228 219 211 215 221 226 226 228 225 224 224 223 222 221 218 219 221 222 222 222 219 216 217 218 220 222 224 225 226 221 210 196 184 166
176 182 190 197 203 212 217 216 205 192 193 209 216 211 210 218 221 217 213 208 200 199 202 210 214 212 207 206 206 207 210 211 208 204 208 210 212 214 216 217 217 219 220 218 219 220 218 212 198 185 178 165 158 160
176 183 191 199 205 212 213 211 206 198 193 204 213 212 211 210 202 195 199 201 200 193 192 200 205 202 196 193 193 194 195 200 205 207 208 210 214 217 218 218 219 217 214 212 210 200 188 181 174 167 159 161 162 162
187 190 196 200 206 209 214 208 198 198 196 201 210 210 207 197 193 196 199 198 193 191 197 202 199 196 194 196 197 198 200 205 209 211 211 210 211 212 212 213 212 207 201 191 183 178 172 167 161 160 161 162 163 166
192 194 200 206 209 210 194 192 184 185 195 208 212 204 194 194 199 197 197 198 196 199 205 210 208 204 200 200 203 205 204 206 205 200 200 201 203 201 202 199 195 191 184 177 171 167 163 160 160 162 165 166 169 174
195 198 201 204 208 207 189 184 183 193 204 205 199 192 195 203 202 197 195 196 203 210 208 208 208 207 204 206 205 204 205 203 200 200 200 198 196 192 191 191 187 179 174 169 167 162 160 161 164 167 173 177 180 188
195 198 198 196 194 186 185 190 193 200 203 198 195 196 204 205 205 202 197 196 199 205 207 207 206 203 202 203 202 202 199 197 198 196 192 187 185 185 184 181 176 174 172 166 164 164 166 168 174 180 184 189 200 220
188 189 188 185 185 186 189 194 200 200 198 196 196 200 200 202 204 201 196 197 197 202 206 205 202 202 202 200 199 196 194 194 192 189 186 184 183 181 179 176 174 171 166 167 168 172 174 179 183 189 201 214 231 252
Height
10018 10034 10048 10068 10088 10109 10137 10156 10171 10193 10216 10239 10261 10285 10305 10324 10344 10360 10377 10390 10403 10422 10440 10454 10467 10478 10486 10492 10498 10504 10503 10523 10529 10536 10545 10556 10562 10565 10573 10575 10575 10575 10572 10580 10581 10587 10592 10584 10581 10572 10573 10573 10571 10568
10007 10021 10036 10053 10075 10095 10115 10140 10156 10181 10209 10228 10251 10269 10285 10307 10326 10340 10357 10375 10388 10403 10420 10433 10445 10455 10466 10471 10476 10483 10492 10501 10507 10515 10526 10532 10544 10549 10551 10555 10555 10563 10560 10560 10566 10572 10570 10571 10567 10563 10556 10550 10549 10551
9997 10009 10023 10041 10061 10080 10103 10126 10147 10170 10189 10217 10230 10252 10270 10290 10307 10325 10340 10354 10368 10381 10395 10408 10421 10433 10444 10453 10459 10467 10473 10482 10486 10493 10500 10507 10516 10527 10534 10538 10538 10546 10545 10547 10545 10554 10550 10549 10547 10544 10546 10538 10533 10531
9988 10002 10015 10029 10050 10071 10091 10116 10138 10159 10179 10198 10217 10235 10256 10272 10290 10309 10324 10336 10349 10359 10370 10389 10403 10413 10424 10433 10438 10446 10452 10458 10464 10467 10473 10485 10494 10501 10509 10515 10521 10523 10526 10527 10532 10529 10524 10528 10526 10524 10523 10522 10518 10516
9982 9995 10009 10023 10037 10058 10082 10109 10131 10152 10169 10190 10207 10226 10241 10258 10274 10291 10304 10312 10325 10331 10356 10373 10384 10394 10404 10412 10418 10424 10431 10437 10443 10445 10452 10461 10471 10476 10484 10492 10508 10504 10502 10502 10508 10501 10503 10505 10502 10503 10500 10498 10500 10502
9972 9985 9999 10013 10032 10054 10076 10100 10122 10141 10161 10180 10193 10203 10221 10243 10259 10272 10280 10290 10309 10322 10339 10353 10368 10373 10383 10389 10395 10401 10409 10414 10421 10427 10432 10440 10450 10451 10457 10473 10486 10481 10479 10479 10481 10480 10482 10483 10478 10475 10478 10479 10478 10480
9968 9981 9995 10009 10026 10043 10062 10085 10107 10129 10151 10164 10163 10192 10213 10228 10239 10257 10276 10287 10290 10300 10312 10326 10336 10347 10356 10364 10372 10377 10383 10392 10398 10404 10411 10420 10425 10425 10432 10459 10466 10460 10454 10457 10461 10462 10462 10454 10455 10457 10457 10456 10458 10460
9967 9979 9991 10006 10022 10038 10057 10079 10101 10119 10137 10149 10163 10184 10199 10205 10221 10229 10247 10257 10267 10275 10285 10300 10313 10325 10334 10342 10348 10356 10362 10367 10375 10383 10392 10397 10394 10398 10409 10446 10436 10434 10430 10436 10440 10439 10435 10430 10434 10434 10437 10439 10441 10442
9965 9976 9989 10005 10019 10036 10052 10071 10092 10108 10122 10135 10143 10161 10170 10185 10191 10208 10229 10238 10246 10256 10269 10281 10291 10300 10308 10319 10328 10334 10342 10349 10356 10363 10367 10367 10371 10379 10400 10401 10401 10400 10404 10411 10413 10411 10409 10410 10409 10409 10413 10419 10423 10421
9965 9975 9989 10003 10017 10032 10048 10064 10075 10088 10100 10121 10136 10146 10154 10173 10182 10190 10210 10217 10227 10239 10249 10258 10266 10279 10288 10298 10307 10314 10320 10326 10335 10339 10339 10340 10350 10360 10357 10362 10369 10374 10378 10379 10383 10389 10384 10390 10386 10387 10393 10397 10398 10398
9963 9975 9988 10001 10014 10027 10039 10050 10060 10082 10097 10109 10122 10135 10152 10156 10169 10176 10182 10197 10209 10220 10231 10241 10253 10263 10269 10278 10287 10293 10299 10302 10303 10307 10308 10316 10328 10329 10321 10331 10337 10345 10350 10354 10360 10368 10365 10362 10364 10368 10373 10373 10375 10375
9961 9973 9986 9999 10011 10022 10032 10047 10061 10073 10091 10108 10125 10137 10139 10151 10154 10156 10165 10183 10200 10212 10221 10229 10236 10244 10252 10257 10258 10260 10261 10265 10273 10279 10285 10295 10297 10293 10295 10301 10307 10315 10321 10326 10330 10337 10341 10342 10339 10342 10350 10351 10352 10354
9958 9971 9983 9995 10006 10018 10031 10043 10055 10067 10081 10093 10105 10112 10122 10128 10136 10149 10166 10182 10191 10202 10211 10217 10220 10220 10216 10221 10225 10227 10234 10241 10247 10253 10261 10266 10265 10263 10274 10274 10280 10284 10290 10298 10304 10310 10314 10319 10321 10322 10326 10327 10331 10331
9958 9970 9982 9992 10002 10016 10026 10038 10050 10060 10071 10081 10091 10103 10111 10123 10135 10146 10153 10162 10174 10184 10183 10179 10177 10179 10186 10192 10198 10202 10207 10217 10218 10227 10236 10228 10225 10249 10240 10239 10246 10254 10264 10272 10278 10285 10291 10295 10296 10298 10303 10306 10307 10309
9958 9969 9980 9992 10002 10010 10020 10031 10042 10053 10063 10074 10084 10092 10105 10118 10127 10131 10142 10145 10150 10151 10151 10153 10152 10157 10165 10172 10179 10184 10187 10189 10203 10207 10200 10193 10213 10206 10208 10212 10222 10233 10243 10250 10256 10261 10267 10273 10275 10279 10283 10285 10288 10290
9959 9968 9977 9989 9998 10006 10015 10025 10035 10048 10056 10067 10079 10091 10100 10106 10110 10114 10118 10120 10119 10122 10124 10126 10130 10138 10147 10151 10159 10160 10167 10176 10173 10173 10176 10179 10183 10185 10190 10198 10207 10219 10226 10231 10237 10243 10249 10254 10257 10260 10265 10268 10270 10271
9959 9968 9976 9983 9990 10000 10010 10019 10029 10039 10051 10063 10073 10082 10086 10089 10092 10096 10097 10099 10099 10105 10112 10113 10117 10120 10127 10135 10148 10150 10151 10148 10154 10158 10155 10161 10171 10183 10189 10194 10201 10207 10212 10219 10225 10230 10234 10238 10242 10246 10249 10252 10255 10256
9953 9963 9970 9978 9989 9999 10008 10017 10027 10037 10046 10053 10060 10065 10068 10071 10074 10079 10083 10086 10089 10094 10098 10103 10108 10117 10125 10133 10137 10132 10129 10131 10143 10140 10148 10160 10169 10177 10182 10185 10190 10195 10201 10207 10212 10216 10218 10222 10227 10230 10234 10237 10240 10243
9948 9958 9969 9978 9987 9996 10007 10016 10026 10035 10041 10041 10044 10049 10055 10058 10062 10066 10072 10078 10085 10089 10096 10101 10106 10115 10115 10111 10112 10116 10121 10127 10131 10140 10145 10151 10159 10166 10168 10173 10178 10183 10189 10192 10197 10201 10205 10209 10213 10217 10222 10225 10227 10230
9950 9958 9968 9974 9980 9990 10000 10007 10012 10018 10022 10028 10034 10039 10046 10053 10058 10063 10068 10074 10077 10080 10087 10092 10094 10093 10090 10094 10101 10105 10109 10117 10124 10126 10132 10141 10149 10153 10156 10162 10167 10172 10177 10181 10185 10189 10193 10198 10202 10206 10209 10212 10216 10220
9947 9956 9963 9970 9979 9986 9992 9996 10001 10005 10013 10022 10027 10035 10042 10046 10054 10061 10064 10067 10074 10076 10072 10071 10073 10078 10084 10089 10092 10095 10099 10105 10110 10117 10126 10132 10135 10142 10146 10150 10156 10159 10164 10170 10174 10178 10183 10188 10193 10196 10199 10203 10205 10208
9945 9954 9963 9970 9976 9982 9985 9989 9998 10008 10017 10024 10029 10034 10040 10047 10051 10055 10059 10056 10053 10054 10059 10064 10068 10073 10078 10082 10087 10093 10098 10103 10105 10107 10110 10114 10120 10126 10132 10137 10142 10149 10156 10161 10165 10170 10174 10178 10182 10185 10188 10192 10194 10197
9943 9950 9958 9964 9971 9975 9981 9990 9999 10007 10014 10019 10022 10024 10029 10033 10036 10038 10039 10044 10048 10049 10053 10057 10062 10067 10071 10075 10079 10081 10085 10089 10094 10098 10104 10109 10115 10118 10123 10131 10137 10142 10147 10152 10156 10160 10163 10167 10171 10174 10177 10180 10183 10187
9938 9947 9954 9960 9968 9975 9981 9989 9996 10003 10008 10010 10013 10017 10020 10025 10028 10028 10030 10035 10040 10044 10047 10052 10057 10061 10065 10069 10071 10075 10078 10080 10085 10093 10100 10104 10108 10114 10120 10124 10129 10133 10139 10144 10147 10151 10154 10158 10161 10164 10167 10171 10176 10180
9936 9942 9951 9958 9966 9972 9975 9981 9989 9996 10001 10005 10007 10010 10014 10018 10018 10022 10028 10034 10037 10039 10044 10049 10052 10054 10057 10059 10063 10068 10073 10077 10083 10088 10093 10097 10103 10108 10112 10117 10122 10127 10130 10134 10137 10141 10145 10148 10151 10156 10161 10165 10170 10174
9937 9948 9955 9959 9959 9961 9965 9973 9980 9986 9993 9999 10001 10004 10009 10012 10014 10021 10028 10033 10035 10038 10040 10042 10045 10049 10053 10058 10062 10066 10072 10076 10079 10083 10088 10092 10097 10102 10106 10110 10114 10119 10123 10126 10130 10134 10139 10143 10147 10152 10156 10161 10166 10171
9936 9941 9945 9948 9952 9956 9962 9969 9977 9985 9991 9994 9997 10003 10007 10009 10014 10021 10027 10030 10033 10034 10037 10040 10045 10048 10051 10054 10059 10063 10067 10072 10076 10081 10083 10086 10091 10096 10100 10105 10110 10114 10118 10123 10126 10131 10135 10139 10144 10148 10154 10158 10164 10170
9931 9934 9939 9942 9947 9951 9957 9965 9971 9979 9985 9991 9994 9998 10003 10007 10015 10021 10025 10026 10029 10031 10034 10038 10042 10045 10049 10053 10057 10060 10064 10068 10071 10075 10079 10084 10089 10094 10098 10102 10106 10111 10115 10119 10123 10128 10133 10137 10142 10147 10152 10159 10166 10171
9923 9926 9930 9936 9942 9948 9955 9962 9968 9973 9980 9985 9990 9995 10002 10010 10015 10018 10021 10024 10026 10029 10033 10038 10041 10045 10049 10052 10056 10059 10062 10066 10070 10074 10078 10082 10087 10091 10095 10100 10104 10108 10112 10117 10121 10127 10132 10137 10143 10149 10157 10163 10167 10171
9922 9928 9932 9937 9944 9951 9958 9963 9968 9975 9981 9985 9990 9997 10003 10006 10009 10012 10016 10020 10024 10028 10032 10036 10040 10043 10046 10049 10053 10056 10060 10064 10069 10074 10077 10081 10085 10089 10094 10098 10103 10108 10112 10117 10123 10128 10134 10140 10147 10152 10158 10162 10165 10168
9923 9929 9935 9940 9947 9953 9960 9966 9970 9975 9980 9983 9988 9993 9997 9999 10003 10007 10011 10016 10020 10025 10029 10033 10037 10040 10044 10047 10051 10055 10059 10064 10068 10071 10075 10079 10083 10087 10092 10097 10103 10108 10114 10119 10124 10130 10137 10143 10148 10153 10156 10160 10162 10164
9923 9929 9934 9939 9945 9953 9959 9963 9967 9972 9977 9982 9986 9990 9994 9998 10002 10006 10009 10013 10017 10022 10027 10031 10035 10038 10041 10045 10050 10054 10058 10062 10065 10069 10073 10078 10082 10087 10092 10098 10104 10110 10115 10121 10127 10133 10138 10142 10146 10151 10154 10156 10158 10160
9923 9929 9935 9940 9946 9950 9956 9961 9965 9971 9975 9980 9984 9987 9990 9994 9998 10003 10007 10011 10015 10021 10026 10030 10033 10036 10040 10044 10048 10052 10056 10060 10064 10069 10074 10078 10083 10088 10093 10100 10106 10112 10118 10123 10128 10133 10137 10141 10144 10148 10151 10153 10154 10154